Regional Weather Roundup
Issued by NWS Sioux Falls, SD

Home | Current Version | Previous Version | Text Only | Print | Product List | Glossary On
Versions: 1 2 3 4 5 6 7 8 9 10 11 12 13 14 15 16 17 18 19 20 21 22 23 24 25 26 27 28 29 30 31 32 33 34 35 36 37 38 39 40 41 42 43 44 45 46 47 48 49 50
000
ASUS43 KFSD 221810
RWRFSD

WEATHER ROUNDUP FOR SE SOUTH DAKOTA/SW MINNESOTA/NW IOWA
NATIONAL WEATHER SERVICE SIOUX FALLS SD
1200 PM CST THU FEB 22 2018

NOTE: "FAIR" INDICATES FEW OR NO CLOUDS BELOW 12,000 FEET WITH NO
SIGNIFICANT WEATHER AND OR OBSTRUCTIONS TO VISIBILITY.


SDZ038>040-050-052>070-221900-
SOUTHEAST SOUTH DAKOTA

CITY           SKY/WX    TMP DP  RH WIND       PRES   REMARKS
BROOKINGS      PTSUNNY   23  17  78 SE10      30.39S WCI  12
CHAMBERLAIN    LGT SNOW  24  22  92 E9        30.31F WCI  14
6HR MIN TEMP:  13; 6HR MAX TEMP:  24;

HURON          CLOUDY    23  17  78 SE10      30.37F WCI  12
6HR MIN TEMP:  13; 6HR MAX TEMP:  23;

MADISON        CLOUDY    23  23 100 SE13      30.37F WCI  11
MITCHELL       FLURRIES  22  18  85 S12       30.39F WCI  10
6HR MIN TEMP:  17; 6HR MAX TEMP:  23; 6HR PCP: TRACE;

SIOUX FALLS    CLOUDY    23  17  78 E9        30.38F WCI  13
6HR MIN TEMP:  16; 6HR MAX TEMP:  23; 6HR PCP: TRACE;

WINNER         LGT SNOW  24  19  81 S10       30.26F WCI  14
YANKTON        LGT SNOW  21  18  86 E9        30.37F FOG     WCI  11
$$

MNZ071-072-080-081-089-090-097-098-221900-
SOUTHWEST MINNESOTA

CITY           SKY/WX    TMP DP  RH WIND       PRES   REMARKS
JACKSON        CLOUDY    21  19  93 NE9       30.41F WCI  11
LUVERNE        CLOUDY    23  19  86 E9        30.40F WCI  13
MARSHALL       CLOUDY    24  16  71 SE8       30.45F WCI  15
6HR MIN TEMP:   6; 6HR MAX TEMP:  24; 6HR PCP: TRACE;

MONTEVIDEO     CLOUDY    23  14  68 SE8       30.46F WCI  14
PIPESTONE      CLOUDY    23  18  80 SE8       30.38S WCI  14
REDWOOD FALLS  CLOUDY    23  16  74 E6        30.46F WCI  16
TRACY          CLOUDY    23  19  87 E7        30.43F WCI  14
WORTHINGTON    CLOUDY    21  17  84 NE10      30.40F WCI  10
$$

IAZ001>003-012>014-020>022-031-032-NEZ013-014-SDZ071-221900-
NORTHWEST IOWA

CITY           SKY/WX    TMP DP  RH WIND       PRES   REMARKS
CHEROKEE       CLOUDY    27  22  82 E7        30.39F WCI  19
DENISON        CLOUDY    27  25  93 SE8       30.38F FOG     WCI  18
ESTHERVILLE    CLOUDY    24  21  88 E10       30.41F WCI  14
LE MARS        CLOUDY    27  19  74 VRB7      30.38F WCI  19
ORANGE CITY    CLOUDY    28  21  74 E6        30.37F WCI  22
SHELDON        CLOUDY    25  23  93 E10       30.38F WCI  15
SIOUX CITY     CLOUDY    25  21  85 E9        30.37F WCI  15
6HR MIN TEMP:  20; 6HR MAX TEMP:  26;

SPENCER        MIX PCPN  28  20  71 E14       30.40F WCI  17
6HR MIN TEMP:  19; 6HR MAX TEMP:  29; 6HR PCP: TRACE;

STORM LAKE     CLOUDY    25  19  80 E15       30.36F WCI  12
$$

ABBREVIATIONS USED IN REMARKS
   TC - TEMPERATURE IN CELSIUS
  WCI - WIND CHILL INDEX
   HX - HEAT INDEX
  VSB - VISIBILITY




USA.gov is the U.S. government's official web portal to all federal, state and local government web resources and services.